When you browse on this site, cookies collect data to enhance your experience and personalize the content and advertising you see.
Visit our Privacy Policy to learn more. By continuing to use the site, you agree to this use of cookies and data.
  • In Hungary
  • List of Countries
  • For 7 days
  • Water Temperature
  • Satellite Maps
  • Weather Map
  • News
  • Weather Widgets
  • user-avatar
    Login

    Hourly Weather Praia

    Today, 22 January, Tuesday

    Time Temperature Precipitation Wind Pressure Humidity
    00:00 +27°C° 0 mm 3 mps 684 mmHg 16%
    01:00 +26°C° 0 mm 3 mps 684 mmHg 17%
    02:00 +25°C° 0 mm 3 mps 683 mmHg 18%
    03:00 +24°C° 0 mm 3 mps 683 mmHg 18%
    04:00 +24°C° 0 mm 3 mps 683 mmHg 18%
    05:00 +22°C° 0 mm 3 mps 683 mmHg 19%
    06:00 +22°C° 0 mm 3 mps 683 mmHg 18%
    07:00 +22°C° 0 mm 3 mps 683 mmHg 18%
    08:00 +24°C° 0 mm 3 mps 684 mmHg 17%
    09:00 +26°C° 0 mm 3 mps 684 mmHg 15%
    10:00 +29°C° 0 mm 3 mps 685 mmHg 14%
    11:00 +31°C° 0 mm 3 mps 685 mmHg 12%
    12:00 +33°C° 0 mm 3 mps 685 mmHg 11%
    13:00 +34°C° 0 mm 2 mps 684 mmHg 11%
    14:00 +34°C° 0 mm 1 mps 684 mmHg 10%
    15:00 +35°C° 0 mm 2 mps 684 mmHg 10%
    16:00 +35°C° 0 mm 2 mps 684 mmHg 10%
    17:00 +35°C° 0 mm 2 mps 683 mmHg 10%
    18:00 +32°C° 0 mm 2 mps 683 mmHg 11%
    19:00 +31°C° 0 mm 3 mps 683 mmHg 12%
    20:00 +29°C° 0 mm 3 mps 683 mmHg 14%
    21:00 +28°C° 0 mm 3 mps 683 mmHg 14%
    22:00 +27°C° 0 mm 4 mps 683 mmHg 14%
    23:00 +27°C° 0 mm 4 mps 684 mmHg 14%

    Tomorrow, 23 January, Wednesday

    Time Temperature Precipitation Wind Pressure Humidity
    00:00 +26°C° 0 mm 4 mps 683 mmHg 14%
    01:00 +25°C° 0 mm 4 mps 683 mmHg 14%
    02:00 +25°C° 0 mm 4 mps 683 mmHg 14%
    03:00 +23°C° 0 mm 4 mps 683 mmHg 15%
    04:00 +24°C° 0 mm 3 mps 682 mmHg 16%
    05:00 +22°C° 0 mm 3 mps 682 mmHg 17%
    06:00 +23°C° 0 mm 2 mps 682 mmHg 17%
    07:00 +23°C° 0 mm 2 mps 683 mmHg 17%
    08:00 +23°C° 0 mm 1 mps 683 mmHg 17%
    09:00 +26°C° 0 mm 2 mps 684 mmHg 14%
    10:00 +29°C° 0 mm 3 mps 684 mmHg 12%
    11:00 +31°C° 0 mm 3 mps 685 mmHg 10%
    12:00 +33°C° 0 mm 3 mps 684 mmHg 10%
    13:00 +34°C° 0 mm 3 mps 684 mmHg 9%
    14:00 +35°C° 0 mm 3 mps 683 mmHg 9%
    15:00 +35°C° 0 mm 3 mps 683 mmHg 9%
    16:00 +36°C° 0 mm 3 mps 682 mmHg 9%
    17:00 +36°C° 0 mm 2 mps 682 mmHg 9%
    18:00 +32°C° 0 mm 2 mps 682 mmHg 10%
    19:00 +30°C° 0 mm 1 mps 682 mmHg 12%
    20:00 +28°C° 0 mm 1 mps 682 mmHg 13%
    21:00 +28°C° 0 mm 1 mps 682 mmHg 13%
    22:00 +28°C° 0 mm 2 mps 682 mmHg 13%
    23:00 +27°C° 0 mm 2 mps 683 mmHg 14%

    Day after tomorrow, 24 January, Thursday

    Time Temperature Precipitation Wind Pressure Humidity
    00:00 +26°C° 0 mm 2 mps 682 mmHg 15%
    01:00 +25°C° 0 mm 2 mps 682 mmHg 16%
    02:00 +24°C° 0 mm 1 mps 682 mmHg 17%
    03:00 +23°C° 0 mm 1 mps 681 mmHg 18%
    04:00 +22°C° 0 mm 1 mps 681 mmHg 19%
    05:00 +20°C° 0 mm 0 mps 681 mmHg 20%
    06:00 +20°C° 0 mm 0 mps 682 mmHg 19%
    07:00 +21°C° 0 mm 0 mps 682 mmHg 19%
    08:00 +22°C° 0 mm 0 mps 683 mmHg 19%
    09:00 +26°C° 0 mm 1 mps 683 mmHg 16%
    10:00 +29°C° 0 mm 1 mps 684 mmHg 13%
    11:00 +31°C° 0 mm 1 mps 684 mmHg 11%
    12:00 +32°C° 0 mm 1 mps 684 mmHg 10%
    13:00 +33°C° 0 mm 1 mps 683 mmHg 9%
    14:00 +34°C° 0 mm 1 mps 683 mmHg 9%
    15:00 +35°C° 0 mm 1 mps 682 mmHg 8%
    16:00 +36°C° 0 mm 2 mps 682 mmHg 8%
    17:00 +36°C° 0 mm 2 mps 681 mmHg 8%
    18:00 +34°C° 0 mm 2 mps 681 mmHg 9%
    19:00 +31°C° 0 mm 2 mps 682 mmHg 11%
    20:00 +29°C° 0 mm 1 mps 682 mmHg 12%
    21:00 +28°C° 0 mm 1 mps 682 mmHg 12%
    22:00 +28°C° 0 mm 1 mps 682 mmHg 13%
    23:00 +27°C° 0 mm 1 mps 683 mmHg 13%

    25 January, Friday

    Time Temperature Precipitation Wind Pressure Humidity
    00:00 +26°C° 0 mm 1 mps 682 mmHg 14%
    01:00 +25°C° 0 mm 1 mps 682 mmHg 15%
    02:00 +24°C° 0 mm 1 mps 682 mmHg 16%
    03:00 +24°C° 0 mm 2 mps 682 mmHg 16%
    04:00 +24°C° 0 mm 2 mps 682 mmHg 16%
    05:00 +24°C° 0 mm 3 mps 681 mmHg 16%
    06:00 +24°C° 0 mm 3 mps 682 mmHg 16%
    07:00 +25°C° 0 mm 3 mps 682 mmHg 16%
    08:00 +25°C° 0 mm 3 mps 683 mmHg 16%
    09:00 +27°C° 0 mm 3 mps 683 mmHg 14%
    10:00 +30°C° 0 mm 3 mps 684 mmHg 12%
    11:00 +34°C° 0 mm 4 mps 684 mmHg 10%
    12:00 +35°C° 0 mm 2 mps 684 mmHg 9%
    13:00 +35°C° 0 mm 1 mps 683 mmHg 8%
    14:00 +34°C° 0 mm 0 mps 683 mmHg 8%
    15:00 +36°C° 0 mm 1 mps 682 mmHg 8%
    16:00 +37°C° 0 mm 2 mps 682 mmHg 7%
    17:00 +37°C° 0 mm 3 mps 682 mmHg 7%
    18:00 +35°C° 0 mm 3 mps 682 mmHg 8%
    19:00 +34°C° 0 mm 3 mps 682 mmHg 10%
    20:00 +31°C° 0 mm 2 mps 682 mmHg 11%
    21:00 +30°C° 0 mm 3 mps 682 mmHg 11%
    22:00 +29°C° 0 mm 3 mps 683 mmHg 12%
    23:00 +28°C° 0 mm 4 mps 683 mmHg 13%

    26 January, Saturday

    Time Temperature Precipitation Wind Pressure Humidity
    00:00 +27°C° 0 mm 3 mps 682 mmHg 14%
    01:00 +26°C° 0 mm 3 mps 682 mmHg 15%
    02:00 +25°C° 0 mm 2 mps 681 mmHg 17%
    03:00 +25°C° 0 mm 2 mps 681 mmHg 17%
    04:00 +25°C° 0 mm 3 mps 681 mmHg 17%
    05:00 +24°C° 0 mm 3 mps 681 mmHg 18%
    06:00 +25°C° 0 mm 3 mps 682 mmHg 17%
    07:00 +25°C° 0 mm 3 mps 682 mmHg 17%
    08:00 +25°C° 0 mm 3 mps 683 mmHg 17%
    09:00 +27°C° 0 mm 3 mps 683 mmHg 15%
    10:00 +30°C° 0 mm 3 mps 683 mmHg 13%
    11:00 +33°C° 0 mm 4 mps 684 mmHg 11%
    12:00 +34°C° 0 mm 3 mps 683 mmHg 10%
    13:00 +35°C° 0 mm 3 mps 683 mmHg 9%
    14:00 +36°C° 0 mm 3 mps 682 mmHg 8%
    15:00 +36°C° 0 mm 2 mps 682 mmHg 8%
    16:00 +37°C° 0 mm 2 mps 682 mmHg 8%
    17:00 +37°C° 0 mm 2 mps 681 mmHg 8%
    18:00 +35°C° 0 mm 2 mps 681 mmHg 9%
    19:00 +34°C° 0 mm 3 mps 682 mmHg 10%
    20:00 +32°C° 0 mm 4 mps 682 mmHg 11%
    21:00 +30°C° 0 mm 3 mps 682 mmHg 12%
    22:00 +29°C° 0 mm 3 mps 682 mmHg 12%
    23:00 +28°C° 0 mm 3 mps 682 mmHg 13%

    27 January, Sunday

    Time Temperature Precipitation Wind Pressure Humidity
    00:00 +27°C° 0 mm 3 mps 682 mmHg 13%
    01:00 +26°C° 0 mm 4 mps 681 mmHg 13%
    02:00 +26°C° 0 mm 4 mps 681 mmHg 13%
    03:00 +25°C° 0 mm 4 mps 681 mmHg 13%
    04:00 +25°C° 0 mm 4 mps 681 mmHg 13%
    05:00 +23°C° 0 mm 4 mps 681 mmHg 13%
    06:00 +24°C° 0 mm 3 mps 681 mmHg 13%
    07:00 +24°C° 0 mm 3 mps 682 mmHg 14%
    08:00 +24°C° 0 mm 3 mps 682 mmHg 14%
    09:00 +27°C° 0 mm 3 mps 682 mmHg 12%
    10:00 +29°C° 0 mm 3 mps 683 mmHg 11%
    11:00 +33°C° 0 mm 3 mps 683 mmHg 9%
    12:00 +34°C° 0 mm 3 mps 683 mmHg 9%
    13:00 +35°C° 0 mm 2 mps 682 mmHg 8%
    14:00 +36°C° 0 mm 2 mps 681 mmHg 8%
    15:00 +36°C° 0 mm 2 mps 681 mmHg 8%
    16:00 +36°C° 0 mm 3 mps 681 mmHg 8%
    17:00 +36°C° 0 mm 3 mps 681 mmHg 8%
    18:00 +35°C° 0 mm 4 mps 681 mmHg 9%
    19:00 +33°C° 0 mm 4 mps 681 mmHg 9%
    20:00 +32°C° 0 mm 4 mps 681 mmHg 10%
    21:00 +30°C° 0 mm 4 mps 682 mmHg 9%
    22:00 +28°C° 0 mm 5 mps 682 mmHg 8%
    23:00 +27°C° 0 mm 5 mps 682 mmHg 8%
    Show more